Showing default

COSMOS 2506, 40699

Orbit data source: Space-Track

COSMOS 2506, 40699 is a payload satellite owned by VVKO VKS (CIS) in SSO that was launched on Tue, 23 Jun 2015 UTC via a SOYUZ-2-1B launch vehicle from the Plesetsk Missile And Space Complex (PKMTR). Payload-class satellites include a variety of spacecraft equipped with specific instruments for various scientific and technological missions. These include communications satellites like Starlink; space stations such as the ISS; scientific satellites like the Hubble; Earth observation satellites from companies like Planet Labs, Umbra, and HawkEye 360; GPS; miniature CubeSats for education and research; and military/defense satellites.

Loading next visibility...
Identifier
40699, 2015-029A
Orbit
SSO
Country
Flag of CISCIS
Related business
Manufacturer
TsSKB-Progress
Mission
Operational Defense Imaging
Bus & Motor
PERSONA-1, 11D428
Mass
~7,000 kg wet, ~7,000 kg dry
Launch date (UTC)
2015-06-23 (10 years ago)
Launch vehicle
SOYUZ-2-1B
Launch site
Plesetsk Missile And Space Complex (PKMTR)
Object type
Payload
Rocket body
Debris
Shape & HBR
Cyl + 2 Pan, 3.1 m
Radar Cross Section
16.222 m², Large (>1 m²)

Expand to show TLE details & history
Last TLE update: 13 hours ago

TLE from 13 hours ago
0 COSMOS 2506
1 40699U 15029A   25311.28841973  .00000321  00000-0  85976-4 0  9994
2 40699  98.0804 355.1377 0008403 119.1046 241.0994 14.54275701550631
Epoch: 2025-11-07T06:55Z
TLE epoch observation values (Epoch: 2025-11-07T06:55:19.464Z)
Latitude
0.00001°
Longitude
-155.42793°
Altitude
717.582 km
Speed
7.495 km/s
True Right ascension
23h 40m 33s
True Declination
0° 00' 00"
Sunlit
Object was in full shadow at epoch
Visualization orbit readout
Latitude
Unknown
Longitude
Unknown
Altitude
Unknown
Speed
Unknown
Apparent Right ascension
Unknown
Apparent Declination
Unknown
Sunlit
N/A
Visualization observer readout
Local Sidereal Time
16:26:28
Azimuth
Unknown
Elevation
Unknown
Doppler factor
Unknown
Orbital elements
Apogee altitude
714.756 km
Perigee altitude
702.846 km
Semi-major axis
7,086.938 km
Eccentricity
0.00084
Inclination
98.0804°
RAAN
355.1377°
Arg. of periapsis
119.1046°
True anomaly
241.01514°
Mean anomaly
241.0994°
Eccentric anomaly
241.05727°
Mean motion
3.63794 °/min
Orbital period
98.96 mins
BSTAR
0.000085976
Loading maneuver chart data...
Computing Atmospheric mass density...
Loading historical data...
Loading historical data...
Loading historical data...
Loading historical data...
Loading historical data...
Loading historical data...
Loading historical data...
Other satellites on launch #29 in the year 2015 (2015-06-23 UTC)

Documentation

Showing up to 5 results
|